www.pogodaiklimat.ru

Погода и климат >> Архив погоды >> Мексика >> Hidalgo del Parral


ПОГОДА в Hidalgo del Parral

  • Прогноз погоды в Hidalgo del Parral
  • Монитор погоды в Hidalgo del Parral
  • Климат города

АРХИВ ПОГОДЫ в Hidalgo del Parral

Время (UTC), дата Ветер
(напр.,м/с)
 
Видим.   Явления Облачность Т
(С)
Тd
(С)
f
(%)
Тe
(С)
Тes
(С)
Комфортность P
(гПа)
Po
(гПа)
Тmin
(С)
Tmax
(С)
R
(мм)
R24
(мм)
S
(см)
00 14.02 С 1 10 км 10/10 1500 м
[Sc]
+17.0 -0.7 30 +18 +18 1024.4 831.9 +9.1 +17.2
03 14.02 СЗ 1 1000 м 5/1 1500 м
[Sc diur, vesp Ac trans]
+13.2 +1.1 44 +14 +14 1024.5 832.7
12 14.02 СЗ 1 1000 м ясно +7.0 +2.7 74 +6 +6 1028.1 833.1 +7.0 +17.2
15 14.02 С 1 10 км 4/0 2000 м
[Ac trans Ci fib]
+7.4 +3.6 77 +7 +9 1003.0 833.5
18 14.02 З 2 10 км 6/0 2000 м
[Ac trans Cs]
+23.4 +4.4 29 +23 +33 комфорт 1008.1 833.2 +6.4 +23.6
21 14.02 З 3 10 км 6/0
[Cs]
+26.4 +4.8 25 +26 +33 жарко 1020.2 829.5
00 15.02 С 1 10 км 10/5 600 м
[Sc As trans]
+25.4 +4.7 26 +25 +25 комфорт 1016.2 829.0 +6.4 +28.2
03 15.02 С 1 1000 м 8/5 1440 м
[Sc diur, vesp Ac trans]
+19.0 +7.3 47 +21 +21 комфорт 1014.3 829.4
12 15.02 С 1 1000 м 8/0 2000 м
[Ac trans]
+13.2 +7.1 66 +14 +14 1019.5 830.2 +12.9 +28.2
15 15.02 СЗ 1 10 км 9/5 750 м
[Sc Cs]
+13.0 +7.2 68 +13 +14 1021.9 831.0
18 15.02 СЗ 4 10 км 8/0
[Cs]
+24.4 +5.5 30 +24 +31 комфорт 1022.0 831.6 +12.4 +24.6
21 15.02 СЗ 4 10 км 8/0 2000 м
[Ac trans Cs]
+26.4 +5.3 26 +26 +30 жарко 1017.0 828.9
00 16.02 СЗ 2 10 км 10/3 600 м
[Cu hum Cs]
+25.0 +4.5 27 +24 +25 комфорт 1012.9 827.4 +12.4 +28.2
03 16.02 СЗ 2 1000 м 3/0 2000 м
[Ac trans]
+20.0 +5.1 38 +21 +21 комфорт 1012.8 828.4
12 16.02 С 1 1000 м 3/3 600 м
[Sc]
+11.4 +4.0 60 +11 +11 1019.2 829.8 +11.2 +28.2
15 16.02 штиль 0 10 км 8/8 720 м
[Sc]
+10.6 +7.4 81 +10 +11 1022.1 830.7
21 16.02 С 1 10 км 10/5 900 м
[Sc Cs]
+26.2 +4.4 25 +25 +30 комфорт 1017.3 828.0
00 17.02 СЗ 1 10 км 9/8 600 м
[Frnb Cs]
+25.0 +4.5 27 +24 +25 комфорт 1012.5 825.9 +10.4 +26.8
12 17.02 СЗ 3 1000 м 8/8 1000 м
[Sc]
+14.6 +5.4 54 +14 +14 1015.4 827.7 +14.2 +26.8
15 17.02 СЗ 1 10 км 5/3 1000 м
[Sc Cs]
+12.8 +4.8 58 +13 +15 1018.6 829.0
18 17.02 С 2 10 км 3/0
[Cs]
+22.4 +4.9 32 +23 +34 комфорт 1019.3 829.7 +9.8 +22.6
21 17.02 С 3 10 км 9/3 540 м
[Sc diur, vesp Cs]
+26.8 +7.3 29 +26 +31 жарко 1014.8 827.1
00 18.02 СЗ 1 10 км 9/8 600 м
[Sc diur, vesp Ci fib]
+25.6 +4.4 25 +25 +25 комфорт 1012.0 826.3 +9.8 +27.4
12 18.02 СВ 1 1000 м 3/0 2000 м
[Ac trans]
+11.4 +8.7 83 +11 +11 1015.5 827.1 +11.4 +27.4
15 18.02 СВ 1 10 км 5/0
[Cs]
+10.4 +8.7 89 +10 +13 1018.5 827.7
21 18.02 СЗ 3 10 км 9/6 480 м
[Sc diur, vesp Cs]
+23.7 +4.7 29 +23 +26 комфорт 1012.9 824.4
00 19.02 СЗ 6 10 км 9/8 600 м
[Sc diur, vesp Ci fib]
+23.9 +1.9 24 +23 +23 комфорт 1009.6 823.5 +10.0 +27.2
12 19.02 С 1 1000 м 8/8 1000 м
[Sc]
+12.6 +4.2 57 +13 +13 1011.8 823.3 +12.5 +27.2
15 19.02 СВ 1 10 км 9/9 1170 м
[Sc]
+13.2 +3.6 52 +14 +14 1013.7 823.7
18 19.02 СЗ 2 10 км 10/10 1500 м
[Sc]
+16.8 +3.4 41 +17 +17 1014.8 824.6 +12.5 +17.6
21 19.02 СЗ 5 10 км 8/8 1500 м
[Sc]
+22.6 +2.7 27 +22 +23 комфорт 1011.2 822.5
00 20.02 СЗ 5 10 км 6/6 1500 м
[Sc diur, vesp]
+20.0 +3.7 34 +20 +20 1009.3 822.2 +12.5 +23.8
03 20.02 СЗ 2 1000 м 10/10 1260 м
[Sc diur, vesp]
+15.6 +5.2 50 +16 +16 1010.8 823.8
12 20.02 СЗ 1 1000 м 3/0 2000 м
[Ac trans]
+10.2 +3.4 63 +10 +10 1013.1 822.9 +10.0 +23.8
15 20.02 штиль 0 10 км ясно +8.6 +2.4 65 +8 +12 1016.0 824.1
18 20.02 С 2 10 км ясно +19.2 -5.1 19 +20 +33 опасность
простуды
1016.3 824.6 +8.0 +20.2

 

Местоположение метеостанции Hidalgo del Parral (Мексика): широта 26.93 долгота -105.60 высота над уровнем моря 1661 м.

В архиве по умолчанию представлена погода в Hidalgo del Parral за последнюю неделю. Архивные данные за месяц целиком и за предыдущие месяцы, начиная с января 2011 года, Вы можете получить, выбрав интересующий диапазон дат из раскрывающегося списка и нажав кнопку "Ввод!".

Внимание! Время в таблицах - всемирное. Для получения местного времени необходимо прибавить поправку, которая в Hidalgo del Parral равна -6 ч.

Смотрите также архив погоды в соседних городах и на ближайших метеорологических станциях:

Погода в Tepehuanes (Мексика) (177 км)
Погода в Chihuahua University (Мексика) (193 км)
Погода в Chihuahua (Мексика) (202 км)
Погода в Choix (Мексика) (259 км)
Погода в Torreon (Мексика) (269 км)
Погода в Culiacan (Мексика) (298 км)
Погода в Temosachic (Мексика) (312 км)
Погода в Durango (Мексика) (336 км)
Погода в Monclova (Мексика) (417 км)
Погода в Sombrerete (Мексика) (419 км)

Пояснения к столбцам:

Ветер - указаны скорость ветра в м/с - средняя за 10 мин, порывы в срок и между сроками (в фигурных скобках) и направление, откуда дует ветер: С - северный, СВ - северо-восточный, В - восточный, ЮВ - юго-восточный, Ю - южный, ЮЗ - юго-западный, З - западный, СЗ - северо-западный.
Видимость - горизонтальная дальность видимости в метрах или километрах. При видимости от 1 до 10 км при отсутствии осадков обычно наблюдается дымка, при ухудшении видимости до 1 км и менее - туман. В сухую погоду видимость может ухудшаться дымом, пылью или мглою.
Явления - указаны атмосферные явления, наблюдавшиеся в срок или в последний час перед сроком; фигурными скобками обозначены явления, наблюдавшиеся между сроками (за 1-3 часа до срока); квадратными скобками обозначены град или гололедные отложения с указанием их диаметра в мм.
Облачность - указаны через наклонную черту общая и нижняя облачность в баллах и высота нижней границы облаков в метрах; квадратными скобками обозначены формы облаков: Ci - перистые, Cs - перисто-слоистые, Cc - перисто-кучевые, Ac - высококучевые, As - высокослоистые, Sc - слоисто-кучевые, Ns - слоисто-дождевые, Cu - кучевые, Cb - кучево-дождевые. Подробнее классификацию облаков см. в Атласе облаков (PDF).
T - Температура воздуха - температура, измеренная на высоте 2 м над землей.
Td - Температура точки росы - температура, при понижении до которой содержащийся в воздухе водяной пар достигнет насыщения.
f - Относительная влажность воздуха - влажноcть воздуха, измеренная на высоте 2 м над землей.
Te - Эффективная температура - температура, которую ощущает одетый по сезону человек в тени. Характеристика душности погоды. При расчете учитывается влияние влажности воздуха и скорости ветра на теплоощущения человека.
Tes - Эффективная температура на солнце - температура, которую ощущает человек, с поправкой на солнечный нагрев. Характеристика знойности погоды. Зависит от высоты солнца над горизонтом, облачности и скорости ветра. Ночью, в пасмурную погоду, а также при ветре 12 м/с и более поправка равна нулю.
P - Атмосферное давление - приведенное к уровню моря атмосферное давление.
Po - Атмосферное давление - измеренное на уровне метеостанции атмосферное давление.
Tmin - Минимальная температура - минимум температуры воздуха на высоте 2 м над землей.
Tmax - Максимальная температура - максимум температуры воздуха на высоте 2 м над землей.
R - Количество осадков - Количество выпавших осадков за период времени, мм. При наведении курсора мыши на число - период времени, за который выпало указанное количество осадков.
R24 - Количество осадков - Количество выпавших осадков за 24 часа, мм.
S - Снежный покров - Высота снежного покрова, см. При наведении курсора мыши на число - состояние снежного покрова и степень покрытия местности в баллах.